Date,TemperatureHighF,TemperatureAvgF,TemperatureLowF,DewpointHighF,DewpointAvgF,DewpointLowF,HumidityHigh,HumidityAvg,HumidityLow,PressureMaxIn,PressureMinIn,WindSpeedMaxMPH,WindSpeedAvgMPH,GustSpeedMaxMPH,PrecipitationSumIn
2013-3-1,28.8,21.3,10.1,20.0,15.4,6.1,86,78,65,30.20,30.09,13,3,13,0.00
2013-3-2,33.7,16.5,5.2,16.4,8.2,0.4,84,71,45,30.21,30.11,10,3,10,0.00
2013-3-3,31.0,8.0,-1.1,13.0,2.2,-5.5,85,78,43,30.12,30.05,3,0,3,0.04
2013-3-4,35.3,27.1,7.6,24.7,19.2,2.2,82,72,57,30.07,29.97,7,2,7,0.00
2013-3-5,30.6,27.4,24.1,27.8,23.7,20.9,92,86,81,30.04,29.84,16,3,16,0.01
2013-3-6,34.0,28.2,23.4,25.7,22.5,18.4,86,79,70,30.27,30.06,13,5,13,0.03
2013-3-7,49.0,24.6,6.3,26.8,14.8,2.4,87,69,42,30.37,30.27,5,1,5,0.02
2013-3-8,50.4,35.3,8.1,29.4,23.1,4.5,87,63,42,30.40,30.24,10,2,10,0.00
2013-3-9,43.2,37.1,28.8,33.8,31.5,22.8,90,80,63,30.20,29.75,12,4,12,0.42
2013-3-10,41.4,37.0,34.0,39.3,34.9,32.1,94,92,90,29.77,29.59,8,2,8,0.95
2013-3-11,34.0,32.4,30.2,32.4,30.2,26.8,94,92,85,29.69,29.52,10,3,10,0.03
2013-3-12,36.0,28.6,24.8,27.6,21.7,17.4,88,75,63,29.97,29.73,13,4,13,0.01
2013-3-13,35.6,24.6,18.4,19.8,12.2,7.8,84,61,37,30.26,29.97,14,5,14,0.00
2013-3-14,47.2,26.7,10.1,29.4,18.4,4.2,89,72,48,30.26,30.01,8,1,8,0.00
2013-3-15,40.0,30.9,23.4,33.9,27.2,20.3,91,86,77,30.01,29.77,5,1,5,0.12
2013-3-16,33.7,28.9,21.1,23.4,20.1,17.2,85,69,65,30.08,29.91,10,4,10,0.00
2013-3-17,41.9,30.8,17.3,22.5,18.1,8.8,75,60,46,30.21,30.01,8,3,8,0.00
2013-3-18,36.4,28.4,17.6,30.0,23.0,10.7,87,80,73,29.96,29.55,10,3,10,0.16
2013-3-19,29.7,18.8,11.5,13.5,9.3,5.6,79,67,45,30.00,29.69,10,6,10,0.00
2013-3-20,23.8,15.4,8.3,8.7,4.0,-1.2,66,61,52,30.03,29.97,11,6,11,0.00
2013-3-21,34.2,19.4,8.6,14.6,7.7,1.1,74,61,42,30.01,29.95,7,3,7,0.00
2013-3-22,43.4,23.5,9.5,19.4,11.5,3.3,77,62,36,30.03,29.98,4,1,4,0.01
2013-3-23,44.1,28.7,14.8,23.3,17.0,9.5,83,64,41,30.09,30.01,5,1,5,0.00
2013-3-24,32.2,29.4,27.2,27.1,24.0,20.4,88,80,72,30.03,29.76,11,4,11,0.01
2013-3-25,35.1,30.4,24.5,25.0,22.4,18.4,79,72,65,30.05,29.80,10,6,10,0.00
2013-3-26,42.7,34.6,29.3,28.8,24.5,22.3,76,67,53,30.21,30.06,7,4,7,0.00
2013-3-27,45.4,35.6,23.2,27.4,22.8,16.7,76,61,43,30.28,30.22,6,2,6,0.00
2013-3-28,52.2,38.1,22.3,25.0,21.3,16.2,77,53,31,30.31,30.24,5,2,5,0.00
2013-3-29,57.1,36.8,21.6,28.5,22.4,17.2,85,60,31,30.29,30.19,3,1,3,0.00
2013-3-30,54.7,42.3,29.5,40.1,31.7,21.6,87,66,51,30.18,29.80,11,3,11,0.00
2013-3-31,47.2,39.7,31.9,39.5,32.9,21.1,90,77,63,29.88,29.70,8,4,8,0.01